Regional Weather Roundup
Issued by NWS

Home | Current Version | Previous Version | Text Only | Print | Product List | Glossary On
Versions: 1 2 3 4 5 6 7 8 9 10 11 12 13 14 15 16 17 18 19 20 21 22 23 24 25 26 27 28 29 30 31 32 33 34 35 36 37 38 39 40 41 42 43 44 45 46 47 48 49 50
000
ASUS43 KOAX 050102
RWRNE

WEATHER ROUNDUP FOR NEBRASKA
NATIONAL WEATHER SERVICE OMAHA NE
800 PM CDT WED MAY 04 2016

NOTES: SATELLITE DATA IS BEING USED TO AUGMENT CLOUD COVER ABOVE
       12000 FEET.
       "FAIR" INDICATES FEW OR NO CLOUDS BELOW 12,000 FEET WITH NO
       SIGNIFICANT WEATHER AND/OR OBSTRUCTIONS TO VISIBILITY.

  * THESE STATIONS DO NOT REPORT WEATHER SUCH AS RAIN...SNOW OR FOG.

NEZ001>004-019>022-054>056-050200-
NEBRASKA PANHANDLE

CITY           SKY/WX    TMP DP  RH WIND       PRES   REMARKS
SCOTTSBLUFF    CLEAR     72  41  32 SE12      30.07F
ALLIANCE       CLEAR     68  44  42 SE7       30.07F
CHADRON        CLEAR     71  46  40 SE10      30.03F
KIMBALL        CLEAR     68  40  35 SE10G16   30.12S
SIDNEY         CLEAR     68  45  43 E7        30.12S
$$

NEZ057>060-069>072-079>082-050200-
SOUTHWEST NEBRASKA

CITY           SKY/WX    TMP DP  RH WIND       PRES   REMARKS
NORTH PLATTE   CLEAR     70  40  33 NE5       30.06F
IMPERIAL       CLEAR     73  43  33 NE5       30.08F
LEXINGTON      CLEAR     66  46  47 NE5       30.06S
MCCOOK         CLEAR     69  44  40 E8        30.06S
$$

NEZ005>010-023>029-035>040-094-050200-
NORTH CENTRAL NEBRASKA

CITY           SKY/WX    TMP DP  RH WIND       PRES   REMARKS
VALENTINE      CLEAR     69  40  34 E7        30.06F
AINSWORTH      CLEAR     67  40  37 N3        30.07S
BROKEN BOW     CLEAR     69  43  38 NE5       30.06S
ORD            CLEAR     65  38  36 N5        30.04S
$$

NEZ041-046>049-061>064-073>077-083>087-050200-
SOUTH CENTRAL NEBRASKA

CITY           SKY/WX    TMP DP  RH WIND       PRES   REMARKS
GRAND ISLAND   CLEAR     63  37  38 N7        30.05S
AURORA         CLEAR     66  30  25 N9        30.03F
HASTINGS       CLEAR     65  34  31 N8        30.05S
KEARNEY *      CLEAR     64  39  39 NE6       30.07S
YORK           CLEAR     64  32  29 N8        30.03S
$$

NEZ011>018-030>034-042>045-050200-
NORTHEAST NEBRASKA

CITY           SKY/WX    TMP DP  RH WIND       PRES   REMARKS
NORFOLK        CLEAR     63  34  33 N9        30.02S
ALBION         CLEAR     63  34  33 N6        30.04S
BLAIR          CLEAR     64  39  40 N7        29.99F
COLUMBUS *     CLEAR     66  34  30 NW7       30.03S
FREMONT        CLEAR     65  35  32 N6        30.01S
TEKAMAH        CLEAR     63  45  51 N8        29.99F
$$

NEZ050>053-065>068-078-088>093-050200-
SOUTHEAST NEBRASKA

CITY           SKY/WX    TMP DP  RH WIND       PRES   REMARKS
LINCOLN        CLEAR     68  33  27 NW9       30.01F
OMAHA EPPLEY   PTCLDY    64  42  44 N8        29.99S
BEATRICE       CLEAR     63  39  41 N8        30.01F
FALLS CITY     CLEAR     65  36  34 N8        29.98F
NEBRASKA CITY  CLEAR     63  35  35 NE7       30.00S
$$

NEZ044-045-051>053-067-050200-
OMAHA AREA

CITY           SKY/WX    TMP DP  RH WIND       PRES   REMARKS
OMAHA EPPLEY   PTCLDY    64  42  44 N8        29.99S
BLAIR          CLEAR     64  39  40 N7        29.99F
FREMONT        CLEAR     65  35  32 N6        30.01S
OFFUTT AFB     CLEAR     65  40  39 N7        29.98F
WAHOO          FAIR      66  36  32 N7        30.00S
$$



USA.gov is the U.S. government's official web portal to all federal, state and local government web resources and services.